[[{"header":{"parameterUnit":"m.s-1","parameterCategory":1,"la1":30.2991,"la2":30.254,"lo1":-89.0895,"lo2":-89.0444,"dy":0.0017,"dx":0.0017,"nx":28,"ny":28,"refTime":"2025-01-20T03:00:00:Z","depth":0,"parameterNumber":2,"parameterNumberName":"U-component_of_WINDS"},"data":[0,0,0,0,0,0,0,0,0,0,0,0,0,0,0,0,0,0,0,0,0,0,0,0,0,0,0,0,0,0,0,0,0,0,0,0,0,0,0,0,0,0,0,0,0,0,0,0,0,0,0,0,0,0,0,0,0,0,-6.3537,-6.3537,0,-6.3615,-6.3616,-6.3617,-6.3481,-6.3476,-6.3471,-6.3467,-6.3545,-6.3551,-6.3557,0,0,0,0,0,0,0,0,0,0,0,0,0,-6.3263,-6.3269,-6.3537,-6.3538,-6.3539,-6.3615,-6.3616,-6.3617,-6.3481,-6.3476,-6.347,-6.3465,-6.3543,-6.355,-6.3558,0,0,0,0,0,0,0,0,0,0,0,0,0,-6.3366,-6.3271,-6.3536,-6.348,-6.3476,-6.3615,-6.3616,-6.3618,-6.3483,-6.3476,-6.3469,-6.3462,-6.354,-6.3549,-6.3559,-6.3756,0,0,-6.3588,-6.3592,0,0,0,0,0,0,0,0,-6.3361,-6.3376,-6.3487,-6.3484,-6.348,-6.3531,-6.3548,-6.3664,-6.3484,-6.348,-6.3467,-6.3459,-6.3546,-6.3554,-6.3584,-6.376,-6.3763,-6.3589,-6.3595,-6.3599,-6.3601,0,0,0,0,0,0,0,-6.3354,-6.3372,-6.3567,-6.3489,-6.3484,-6.3449,-6.3456,-6.357,-6.355,-6.348,-6.347,-6.3481,-6.3542,-6.3575,-6.3585,-6.3764,-6.3589,-6.3597,-6.3603,-6.3607,-6.4103,-6.411,0,0,0,0,0,0,-6.3354,-6.3367,-6.3565,-6.357,-6.3402,-6.346,-6.3467,-6.3522,-6.3549,-6.3546,-6.3487,-6.3475,-6.3562,-6.3574,-6.3587,-6.3819,-6.3599,-6.3608,-6.3613,-6.4095,-6.4104,-6.4112,0,0,0,0,0,0,-6.3349,-6.3373,-6.3562,-6.3466,-6.3487,-6.3472,-6.3534,-6.3527,-6.356,-6.3555,-6.355,-6.3525,-6.3557,-6.3574,-6.3715,-6.3819,-6.3612,-6.3621,-6.4086,-6.4098,-6.4108,-6.4284,0,0,0,0,0,0,-6.3341,-6.3372,-6.3448,-6.3469,-6.3493,-6.369,-6.354,-6.3533,-6.3577,-6.3561,-6.3589,-6.3587,-6.3553,-6.3701,-6.3724,-6.3829,-6.3628,-6.4077,-6.4092,-6.4105,-6.4269,-6.43,-6.4326,0,0,0,0,0,-6.3332,-6.3494,-6.3453,-6.3477,-6.3588,-6.3697,-6.371,-6.367,-6.3586,-6.3661,-6.3658,-6.3586,-6.3804,-6.3717,-6.3742,-6.3851,-6.407,-6.4087,-6.4104,-6.4256,-6.4294,-6.4326,0,0,0,0,0,0,-6.3485,-6.3496,-6.345,-6.3624,-6.3661,-6.3673,-6.3767,-6.3711,-6.3772,-6.3754,-6.37,-6.3707,-6.3859,-6.3868,-6.3771,-6.4041,-6.3923,-6.3945,-6.403,-6.4066,-6.4094,-6.4089,-6.3636,0,0,0,0,0,-6.354,-6.3628,-6.3632,-6.3785,-6.3805,-6.3784,-6.3829,-6.3795,-6.383,-6.3845,-6.3851,-6.3887,-6.3963,-6.4015,-6.4085,-6.4269,-6.4272,-6.4356,-6.4385,-6.4408,-6.4429,-6.4525,-6.4562,-6.4167,-6.4167,-6.4167,0,0,-6.3652,-6.3669,-6.3728,-6.3816,-6.384,-6.3932,-6.3798,-6.39,-6.3967,-6.386,-6.3994,-6.4,-6.4036,-6.4199,-6.4271,-6.4211,-6.4538,-6.443,-6.4449,-6.4456,-6.4546,-6.4583,-6.4616,-6.4179,-6.4177,-6.4175,0,0,-6.3904,-6.3926,-6.4055,-6.4082,-6.4121,-6.4105,-6.4136,-6.4158,-6.4158,-6.4291,-6.4212,-6.4289,-6.4423,-6.4451,-6.4484,-6.4744,-6.468,-6.4768,-6.4919,-6.5014,-6.5045,-6.5072,-6.5164,-6.5198,-6.4788,-6.4789,-6.4789,0,-6.4039,-6.4175,-6.4128,-6.4237,-6.4277,-6.4184,-6.4314,-6.4341,-6.4401,-6.443,-6.4363,-6.4527,-6.4545,-6.4713,-6.4776,-6.4805,-6.4838,-6.4766,-6.5044,-6.5071,-6.5096,-6.5183,-6.5218,-6.4799,-6.4798,-6.4797,-6.4796,0,-6.4338,-6.4434,-6.4533,-6.4594,-6.4645,-6.4763,-6.4733,-6.479,-6.475,-6.4741,-6.4877,-6.4895,-6.4966,-6.5003,-6.4966,-6.5166,-6.5127,-6.5053,-6.4933,-6.5145,-6.5226,-6.5259,-6.4814,-6.4811,-6.4808,-6.4805,0,0,-6.4691,-6.4723,-6.476,-6.4786,-6.482,-6.4892,-6.5005,-6.5076,-6.5126,-6.5169,-6.5261,-6.5375,-6.5306,-6.5343,-6.5307,-6.539,-6.5594,-6.5305,-6.5305,-6.5358,-6.5814,-6.587,-6.591,-6.5551,-6.5558,-6.5562,-6.5811,0,-6.494,-6.5137,-6.5098,-6.5289,-6.5376,-6.5288,-6.5386,-6.5417,-6.5411,-6.5482,-6.5474,-6.5555,-6.5459,-6.548,-6.5558,-6.5553,-6.5685,-6.5534,-6.5636,-6.564,-6.563,-6.5952,-6.6012,-6.6245,-6.5842,-6.5848,-6.5852,0,-6.5259,-6.5315,-6.5516,-6.5535,-6.557,-6.566,-6.572,-6.579,-6.5822,-6.5811,-6.5852,-6.5799,-6.5909,-6.5788,-6.5938,-6.5836,-6.5875,-6.5878,-6.5886,-6.5894,-6.5759,-6.5968,-6.6319,-6.6354,-6.5901,-6.5897,-6.5894,0,-6.5495,-6.5621,-6.5756,-6.5781,-6.5807,-6.5872,-6.5886,-6.5911,-6.5956,-6.6008,-6.6036,-6.61,-6.6135,-6.6185,-6.6151,-6.6066,-6.6307,-6.6182,-6.63,-6.6301,-6.6355,-6.6352,-6.6716,-6.638,-6.638,-6.6379,-6.6379,0,-6.5779,-6.5905,-6.5863,-6.5947,-6.6084,-6.6036,-6.6174,-6.6176,-6.62,-6.6281,-6.6208,-6.6286,-6.6236,-6.6308,-6.6282,-6.641,-6.6426,-6.6419,-6.6411,-6.6426,-6.6427,-6.6451,-6.6434,-6.6388,-6.6386,-6.6385,-6.6383,0,-6.6066,-6.6043,-6.6185,-6.6199,-6.6205,-6.6306,-6.6316,-6.6393,-6.638,-6.6484,-6.6505,-6.6486,-6.6568,-6.6538,-6.6625,-6.6607,-6.677,-6.674,-6.676,-6.6752,-6.6871,-6.686,-6.7263,-6.7313,-6.6946,-6.6949,-6.6952,0,-6.6249,-6.6344,-6.6367,-6.6417,-6.6436,-6.6517,-6.6562,-6.6517,-6.6567,-6.661,-6.6681,-6.6757,-6.6815,-6.6949,-6.6942,-6.7008,-6.6979,-6.7115,-6.6988,-6.7,-6.698,-6.6975,-6.6983,-6.7141,-6.7145,-6.7149,-6.7152,0,-6.6575,-6.6559,-6.6627,-6.6691,-6.6747,-6.6795,-6.6836,-6.6881,-6.6838,-6.6897,-6.698,-6.7026,-6.7114,-6.719,-6.7248,-6.726,-6.7199,-6.7192,-6.7222,-6.7239,-6.7246,-6.7243,-6.6829,-6.7183,-6.718,-6.7177,-6.7176,-6.7174,-6.6815,-6.6895,-6.6924,-6.7001,-6.7028,-6.7068,-6.714,-6.7137,-6.7206,-6.7275,-6.7244,-6.734,-6.7367,-6.744,-6.746,-6.7533,-6.748,-6.7524,-6.7535,-6.7547,-6.7562,-6.7234,-6.7544,-6.7543,-6.7542,-6.7541,-6.754,0,-6.7137,-6.7151,-6.7223,-6.7283,-6.7344,-6.7281,-6.7323,-6.7378,-6.7464,-6.7495,-6.7554,-6.7648,-6.772,-6.7718,-6.7784,-6.7843,-6.7817,-6.7862,-6.7857,-6.7861,-6.7607,-6.7573,-6.7882,-6.7882,-6.7882,-6.7882,-6.7882,-6.7882,-6.7312,-6.7443,-6.743,-6.7572,-6.7584,-6.7678,-6.7707,-6.7743,-6.7768,-6.7877,-6.7937,-6.7935,-6.7953,-6.8019,-6.8082,-6.8079,-6.8107,-6.8163,-6.815,-6.7913,-6.7879,-6.7846,-6.7815,-6.8169,-6.817,-6.8397,-6.8399,-6.8401]},{"header":{"parameterUnit":"m.s-1","parameterCategory":1,"la1":30.2991,"la2":30.254,"lo1":-89.0895,"lo2":-89.0444,"dy":0.0017,"dx":0.0017,"nx":28,"ny":28,"refTime":"2025-01-20T03:00:00:Z","depth":0,"parameterNumber":3,"parameterNumberName":"V-component_of_WINDS"},"data":[0,0,0,0,0,0,0,0,0,0,0,0,0,0,0,0,0,0,0,0,0,0,0,0,0,0,0,0,0,0,0,0,0,0,0,0,0,0,0,0,0,0,0,0,0,0,0,0,0,0,0,0,0,0,0,0,0,0,-4.5132,-4.5133,0,-4.523,-4.5231,-4.5232,-4.5218,-4.5216,-4.5214,-4.5213,-4.531,-4.5314,-4.5318,0,0,0,0,0,0,0,0,0,0,0,0,0,-4.4929,-4.4933,-4.5132,-4.5133,-4.5134,-4.5229,-4.5231,-4.5232,-4.5218,-4.5216,-4.5214,-4.5212,-4.5309,-4.5314,-4.5318,0,0,0,0,0,0,0,0,0,0,0,0,0,-4.5021,-4.4934,-4.5132,-4.5139,-4.514,-4.5229,-4.5231,-4.5232,-4.5218,-4.5216,-4.5213,-4.5211,-4.5307,-4.5313,-4.5319,-4.5406,0,0,-4.5338,-4.5341,0,0,0,0,0,0,0,0,-4.5015,-4.5028,-4.5136,-4.5138,-4.514,-4.5209,-4.5195,-4.5291,-4.5219,-4.5189,-4.5213,-4.521,-4.5278,-4.5287,-4.531,-4.5411,-4.5415,-4.5339,-4.5342,-4.5345,-4.5347,0,0,0,0,0,0,0,-4.5009,-4.5024,-4.517,-4.5138,-4.514,-4.5136,-4.5146,-4.5213,-4.5246,-4.5191,-4.519,-4.5202,-4.5279,-4.5304,-4.5312,-4.5416,-4.5338,-4.5344,-4.5348,-4.535,-4.5591,-4.5593,0,0,0,0,0,0,-4.5001,-4.5019,-4.5167,-4.5173,-4.5071,-4.5141,-4.5153,-4.5189,-4.5245,-4.5251,-4.5204,-4.5201,-4.5295,-4.5305,-4.5316,-4.542,-4.5345,-4.5351,-4.5354,-4.5588,-4.5591,-4.5594,0,0,0,0,0,0,-4.4997,-4.5015,-4.5163,-4.5096,-4.5114,-4.5147,-4.5188,-4.5193,-4.5218,-4.5255,-4.526,-4.5224,-4.5293,-4.5307,-4.5383,-4.5423,-4.5353,-4.5359,-4.5585,-4.5589,-4.5593,-4.5629,0,0,0,0,0,0,-4.4991,-4.5013,-4.5048,-4.5097,-4.5118,-4.5231,-4.5191,-4.5196,-4.5229,-4.5226,-4.5276,-4.5281,-4.5293,-4.5374,-4.539,-4.543,-4.5364,-4.5581,-4.5587,-4.5591,-4.5625,-4.5634,-4.5642,0,0,0,0,0,-4.4984,-4.5054,-4.505,-4.5068,-4.5162,-4.5233,-4.5245,-4.5258,-4.5232,-4.5266,-4.529,-4.528,-4.5416,-4.5382,-4.5399,-4.5442,-4.5579,-4.5585,-4.5591,-4.5621,-4.5632,-4.5642,0,0,0,0,0,0,-4.5009,-4.5061,-4.5056,-4.5145,-4.5185,-4.5231,-4.5274,-4.527,-4.5317,-4.5312,-4.5324,-4.5335,-4.5412,-4.5435,-4.5396,-4.5528,-4.5494,-4.5504,-4.5511,-4.5522,-4.553,-4.5523,-4.5369,0,0,0,0,0,-4.5024,-4.5079,-4.5121,-4.5195,-4.5215,-4.5241,-4.5273,-4.5279,-4.532,-4.5337,-4.5366,-4.5405,-4.5457,-4.5491,-4.5541,-4.5628,-4.5637,-4.5666,-4.5674,-4.5681,-4.5689,-4.5735,-4.5748,-4.5614,-4.5614,-4.5614,0,0,-4.5057,-4.5093,-4.5126,-4.5201,-4.5232,-4.5287,-4.5256,-4.5315,-4.5355,-4.5345,-4.5419,-4.5442,-4.5487,-4.5568,-4.5606,-4.559,-4.5728,-4.5689,-4.5694,-4.5699,-4.5743,-4.5755,-4.5766,-4.5618,-4.5617,-4.5617,0,0,-4.5145,-4.5178,-4.5242,-4.5274,-4.5323,-4.5339,-4.5355,-4.5401,-4.5416,-4.549,-4.5484,-4.5531,-4.562,-4.5652,-4.568,-4.5777,-4.5769,-4.5793,-4.5838,-4.5883,-4.5893,-4.5903,-4.5936,-4.5948,-4.5801,-4.5801,-4.5801,0,-4.518,-4.5263,-4.5276,-4.5336,-4.5368,-4.5362,-4.5425,-4.5456,-4.5517,-4.5539,-4.552,-4.5631,-4.5661,-4.5749,-4.5772,-4.5796,-4.5812,-4.5787,-4.5891,-4.59,-4.5909,-4.5941,-4.5954,-4.5804,-4.5803,-4.5803,-4.5803,0,-4.5302,-4.536,-4.5405,-4.5466,-4.5503,-4.5564,-4.5585,-4.562,-4.5623,-4.5641,-4.5715,-4.5751,-4.5807,-4.5828,-4.5831,-4.5916,-4.5904,-4.5888,-4.5854,-4.5924,-4.5954,-4.5967,-4.5807,-4.5806,-4.5806,-4.5805,0,0,-4.5409,-4.5474,-4.549,-4.5517,-4.5569,-4.5613,-4.5673,-4.5728,-4.5758,-4.58,-4.585,-4.5925,-4.591,-4.5941,-4.5947,-4.5987,-4.6059,-4.5965,-4.5966,-4.598,-4.6153,-4.6164,-4.6178,-4.6054,-4.6057,-4.6059,-4.6148,0,-4.55,-4.5608,-4.562,-4.5716,-4.5768,-4.5762,-4.5814,-4.5851,-4.5869,-4.5915,-4.5934,-4.5986,-4.5963,-4.5982,-4.6021,-4.6042,-4.6094,-4.6036,-4.6099,-4.6101,-4.6087,-4.6194,-4.6206,-4.6289,-4.616,-4.6162,-4.6164,0,-4.5622,-4.5668,-4.5768,-4.5812,-4.5834,-4.5881,-4.5931,-4.5976,-4.6016,-4.6026,-4.6061,-4.6061,-4.6122,-4.6085,-4.6167,-4.6128,-4.6154,-4.6168,-4.6172,-4.6177,-4.6136,-4.6201,-4.6316,-4.6328,-4.6183,-4.6181,-4.618,0,-4.5687,-4.5774,-4.5845,-4.5868,-4.5921,-4.5953,-4.5977,-4.6015,-4.6047,-4.609,-4.611,-4.6161,-4.6188,-4.6225,-4.6239,-4.6211,-4.632,-4.6285,-4.6328,-4.6328,-4.6351,-4.6349,-4.647,-4.637,-4.6369,-4.6369,-4.6369,0,-4.5787,-4.5849,-4.5875,-4.5919,-4.5986,-4.5999,-4.6065,-4.6087,-4.6121,-4.6167,-4.6165,-4.6208,-4.6224,-4.6269,-4.628,-4.6345,-4.6357,-4.6366,-4.6368,-4.6366,-4.6364,-4.6382,-4.6376,-4.6373,-4.6372,-4.6371,-4.6371,0,-4.5872,-4.5892,-4.5969,-4.6012,-4.6024,-4.6072,-4.6108,-4.6149,-4.6166,-4.6225,-4.6239,-4.6266,-4.6319,-4.6336,-4.64,-4.6407,-4.6482,-4.648,-4.6469,-4.6469,-4.6511,-4.6506,-4.6647,-4.6665,-4.6554,-4.6555,-4.6556,0,-4.5934,-4.5981,-4.6029,-4.606,-4.6085,-4.6135,-4.6167,-4.6181,-4.6214,-4.6263,-4.6298,-4.635,-4.6393,-4.6478,-4.6502,-4.655,-4.6548,-4.6594,-4.6555,-4.6551,-4.6546,-4.6543,-4.6547,-4.6601,-4.6602,-4.6603,-4.6604,0,-4.6041,-4.6049,-4.6096,-4.6146,-4.6185,-4.6225,-4.6263,-4.6288,-4.6307,-4.6344,-4.6399,-4.6432,-4.6497,-4.6549,-4.6598,-4.662,-4.6614,-4.6616,-4.6628,-4.6626,-4.6617,-4.662,-4.6487,-4.6612,-4.6612,-4.6611,-4.661,-4.661,-4.6116,-4.6156,-4.6196,-4.6248,-4.6278,-4.6314,-4.6354,-4.6376,-4.6422,-4.6476,-4.6481,-4.6539,-4.6577,-4.6642,-4.6667,-4.6711,-4.6698,-4.6716,-4.672,-4.6724,-4.6727,-4.6611,-4.672,-4.672,-4.672,-4.672,-4.6719,0,-4.6221,-4.6246,-4.6294,-4.6348,-4.6388,-4.638,-4.6422,-4.6456,-4.6507,-4.6543,-4.6585,-4.6646,-4.6696,-4.6724,-4.6773,-4.6803,-4.6801,-4.6815,-4.6812,-4.6817,-4.6737,-4.672,-4.6815,-4.6815,-4.6815,-4.6815,-4.6815,-4.6815,-4.6281,-4.6349,-4.6361,-4.6443,-4.6467,-4.6524,-4.6549,-4.6581,-4.6609,-4.6678,-4.6719,-4.6737,-4.6769,-4.682,-4.6864,-4.6871,-4.6888,-4.6903,-4.6908,-4.6833,-4.6823,-4.6813,-4.6798,-4.6908,-4.6908,-4.6985,-4.6985,-4.6986]}]]